Tiempo Historia de Ankeny, IA

Change the Weather History Date:

Sábado, Marzo 17, 2012

  Actual Average (KDSM) Record (KDSM)
Temperature  
Temperatura media 71 ° F 40 ° F  
Temperatura máxima 82 ° F 50 ° F 83 ° F (2012)
Temperatura mínima 60 ° F 30 ° F 0 ° F (1909)
Degree Days  
Grados día de calefacción 0 25  
Month to date heating degree days 487  
Since 1 July heating degree days 5318  
Cooling Degree Days 6 0  
Month to date cooling degree days 0  
Year to date cooling degree days 0  
Growing Degree Days 21 (Base 50)    
Moisture  
Punto de rocío 59 ° F    
Average Humidity 63    
Maximum Humidity 83    
Minimum Humidity 39    
Precipitación  
Precipitación 0.00 pul 0.08 pul 1.16 pul (1991)
Month to date precipitation 1.14  
Year to date precipitation 3.42  
Nieve  
Nieve 0.00 pul 0.20 pul 4.20 pul (1984)
Month to date snowfall 3.3  
Since 1 July snowfall 31.6  
Grosos de nieve -    
Presión al nivel del mar  
Presión al nivel del mar 29.87 pul    
Viento  
Velocidad del viento 12 mph (Sur)    
Velocidad máxima del viento 22 mph    
Max Gust Speed 33 mph    
Visibilidad 10 Millas    
Eventos      
T = Trace of Precipitation, MM = Missing Value Source: NWS Daily Summary

Daily Weather History Graph

Daily Weather History Graph

Search for Another Location

Airport:

Trip Planner

Search our weather history database for the weather conditions in past years. The results will help you decide how hot, cold, wet, or windy it might be!

Date:

Astronomía

Mar. 17, 2012 Salida Puesta
Hora real 7:21 AM CDT 7:23 PM CDT
Crepúsculo civil 6:54 AM CDT 7:51 PM CDT
Crepúsculo náutico 6:21 AM CDT 8:23 PM CDT
Crepúsculo astronómico 5:48 AM CDT 8:56 PM CDT
Luna 4:27 AM CDT 2:44 PM CDT
Horas de luz 12h 57m
Horas de luz
12h 01m
Creciente menguante, 23% of the Moon is Illuminated
Mar 17
Creciente menguante
Mar 22
Nueva
Mar 30
Cuarto creciente
Abr 6
Luna llena
Abr 13
Cuarto menguante

Hourly Weather History & Observations

Hora (CDT) Temp. Índice de calor Punto de rocío Humedad Presión Visibilidad Wind Dir Velocidad del viento Velocidad de ráfagas Precip Eventos Condiciones
12:15 AM 69.8 ° F - 57.2 ° F 64% 29.89 pul 10.0 mi Sur 9.2 mph - N/A   Despejado
12:35 AM 69.8 ° F - 57.2 ° F 64% 29.89 pul 10.0 mi Sur 9.2 mph - N/A   Despejado
12:55 AM 71.6 ° F - 59.0 ° F 64% 29.89 pul 10.0 mi Sur 10.4 mph - N/A   Despejado
1:15 AM 69.8 ° F - 59.0 ° F 68% 29.89 pul 10.0 mi Sur 9.2 mph - N/A   Despejado
1:35 AM 71.6 ° F - 60.8 ° F 69% 29.89 pul 10.0 mi SSO 11.5 mph - N/A   Muy nublado
1:55 AM 71.6 ° F - 60.8 ° F 69% 29.89 pul 10.0 mi Sur 10.4 mph 16.1 mph N/A   Nublado
2:15 AM 71.6 ° F - 60.8 ° F 69% 29.89 pul 10.0 mi Sur 10.4 mph - N/A   Nublado
2:35 AM 71.6 ° F - 60.8 ° F 69% 29.89 pul 10.0 mi Sur 10.4 mph - N/A   Nublado
2:55 AM 69.8 ° F - 60.8 ° F 73% 29.89 pul 10.0 mi Sur 10.4 mph - N/A   Nubes dispersas
3:15 AM 69.8 ° F - 60.8 ° F 73% 29.89 pul 10.0 mi Sur 9.2 mph - N/A   Despejado
3:35 AM 68.0 ° F - 60.8 ° F 78% 29.89 pul 10.0 mi Sur 8.1 mph - N/A   Despejado
3:55 AM 68.0 ° F - 60.8 ° F 78% 29.88 pul 10.0 mi Sur 8.1 mph - N/A   Despejado
4:15 AM 68.0 ° F - 60.8 ° F 78% 29.88 pul 10.0 mi Sur 10.4 mph - N/A   Despejado
4:35 AM 66.2 ° F - 60.8 ° F 83% 29.88 pul 10.0 mi Sur 9.2 mph - N/A   Despejado
4:55 AM 66.2 ° F - 59.0 ° F 78% 29.88 pul 10.0 mi Sur 6.9 mph - N/A   Despejado
5:15 AM 64.4 ° F - 57.2 ° F 77% 29.88 pul 10.0 mi Sur 8.1 mph - N/A   Despejado
5:35 AM 64.4 ° F - 57.2 ° F 77% 29.89 pul 10.0 mi Sur 6.9 mph - N/A   Despejado
5:55 AM 62.6 ° F - 57.2 ° F 82% 29.89 pul 10.0 mi Sur 5.8 mph - N/A   Despejado
6:15 AM 62.6 ° F - 57.2 ° F 82% 29.89 pul 10.0 mi SSE 6.9 mph - N/A   Despejado
6:35 AM 62.6 ° F - 57.2 ° F 82% 29.89 pul 10.0 mi SSE 5.8 mph - N/A   Despejado
6:55 AM 62.6 ° F - 57.2 ° F 82% 29.90 pul 10.0 mi SE 5.8 mph - N/A   Despejado
7:15 AM 60.8 ° F - 55.4 ° F 82% 29.90 pul 10.0 mi SE 6.9 mph - N/A   Despejado
7:35 AM 62.6 ° F - 57.2 ° F 82% 29.90 pul 10.0 mi SE 5.8 mph - N/A   Despejado
7:55 AM 62.6 ° F - 57.2 ° F 82% 29.90 pul 10.0 mi SE 5.8 mph - N/A   Despejado
8:15 AM 64.4 ° F - 57.2 ° F 77% 29.89 pul 10.0 mi SSE 6.9 mph - N/A   Nubes dispersas
8:35 AM 66.2 ° F - 59.0 ° F 78% 29.89 pul 10.0 mi SSE 9.2 mph - N/A   Muy nublado
8:55 AM 66.2 ° F - 59.0 ° F 78% 29.90 pul 10.0 mi SSE 12.7 mph 17.3 mph N/A   Nublado
9:15 AM 68.0 ° F - 59.0 ° F 73% 29.89 pul 10.0 mi SSE 12.7 mph - N/A   Nubes dispersas
9:35 AM 69.8 ° F - 60.8 ° F 73% 29.90 pul 10.0 mi SSE 10.4 mph - N/A   Despejado
9:55 AM 69.8 ° F - 60.8 ° F 73% 29.90 pul 10.0 mi Sur 13.8 mph - N/A   Despejado
10:15 AM 71.6 ° F - 60.8 ° F 69% 29.89 pul 10.0 mi Sur 11.5 mph 19.6 mph N/A   Despejado
10:35 AM 73.4 ° F - 60.8 ° F 65% 29.89 pul 10.0 mi SSE 16.1 mph 19.6 mph N/A   Despejado
10:55 AM 75.2 ° F - 60.8 ° F 61% 29.89 pul 10.0 mi SSE 12.7 mph 23.0 mph N/A   Despejado
11:15 AM 75.2 ° F - 60.8 ° F 61% 29.88 pul 10.0 mi Sur 16.1 mph 23.0 mph N/A   Despejado
11:35 AM 77.0 ° F - 60.8 ° F 57% 29.88 pul 10.0 mi Sur 17.3 mph 23.0 mph N/A   Nubes dispersas
11:55 AM 77.0 ° F - 60.8 ° F 57% 29.88 pul 10.0 mi Sur 18.4 mph 24.2 mph N/A   Nubes dispersas
12:15 PM 77.0 ° F - 60.8 ° F 57% 29.88 pul 10.0 mi SSO 18.4 mph 24.2 mph N/A   Muy nublado
12:35 PM 77.0 ° F - 60.8 ° F 57% 29.88 pul 10.0 mi SSO 19.6 mph 25.3 mph N/A   Nublado
12:55 PM 78.8 ° F - 60.8 ° F 54% 29.87 pul 10.0 mi Sur 19.6 mph 24.2 mph N/A   Muy nublado
1:15 PM 78.8 ° F - 60.8 ° F 54% 29.86 pul 10.0 mi SSO 18.4 mph 25.3 mph N/A   Nubes dispersas
1:35 PM 80.6 ° F 81.1 ° F 59.0 ° F 48% 29.85 pul 10.0 mi Sur 16.1 mph 25.3 mph N/A   Nubes dispersas
1:55 PM 80.6 ° F 80.8 ° F 57.2 ° F 45% 29.85 pul 10.0 mi SSO 19.6 mph 24.2 mph N/A   Nubes dispersas
2:15 PM 82.4 ° F 82.5 ° F 59.0 ° F 45% 29.83 pul 10.0 mi SSO 13.8 mph 23.0 mph N/A   Nubes dispersas
2:35 PM 82.4 ° F 82.0 ° F 57.2 ° F 42% 29.82 pul 10.0 mi Sur 20.7 mph 26.5 mph N/A   Nubes dispersas
2:55 PM 80.6 ° F 80.8 ° F 57.2 ° F 45% 29.82 pul 10.0 mi Sur 17.3 mph 26.5 mph N/A   Nubes dispersas
3:15 PM 82.4 ° F 82.0 ° F 57.2 ° F 42% 29.82 pul 10.0 mi Sur 17.3 mph 27.6 mph N/A   Nubes dispersas
3:35 PM 80.6 ° F 80.5 ° F 55.4 ° F 42% 29.82 pul 10.0 mi Sur 20.7 mph 33.4 mph N/A   Nubes dispersas
3:55 PM 80.6 ° F 80.8 ° F 57.2 ° F 45% 29.81 pul 10.0 mi Sur 19.6 mph 25.3 mph N/A   Despejado
4:15 PM 82.4 ° F 81.7 ° F 55.4 ° F 39% 29.81 pul 10.0 mi Sur 17.3 mph 25.3 mph N/A   Despejado
4:35 PM 80.6 ° F 80.5 ° F 55.4 ° F 42% 29.80 pul 10.0 mi SSE 20.7 mph 26.5 mph N/A   Despejado
4:55 PM 82.4 ° F 81.7 ° F 55.4 ° F 39% 29.80 pul 10.0 mi Sur 21.9 mph - N/A   Nubes dispersas
5:15 PM 82.4 ° F 81.7 ° F 55.4 ° F 39% 29.80 pul 10.0 mi Sur 21.9 mph 28.8 mph N/A   Despejado
5:35 PM 82.4 ° F 81.7 ° F 55.4 ° F 39% 29.80 pul 10.0 mi Sur 21.9 mph 25.3 mph N/A   Nubes dispersas
5:55 PM 80.6 ° F 80.5 ° F 55.4 ° F 42% 29.80 pul 10.0 mi SSE 17.3 mph 20.7 mph N/A   Despejado
6:15 PM 80.6 ° F 80.5 ° F 55.4 ° F 42% 29.81 pul 10.0 mi Sur 20.7 mph 26.5 mph N/A   Despejado
6:35 PM 78.8 ° F - 55.4 ° F 44% 29.81 pul 10.0 mi Sur 12.7 mph - N/A   Despejado
6:55 PM 78.8 ° F - 57.2 ° F 47% 29.81 pul 10.0 mi Sur 18.4 mph 23.0 mph N/A   Nubes dispersas
7:15 PM 77.0 ° F - 57.2 ° F 50% 29.81 pul 10.0 mi Sur 11.5 mph 18.4 mph N/A   Nubes dispersas
7:35 PM 75.2 ° F - 59.0 ° F 57% 29.82 pul 10.0 mi SSE 13.8 mph 20.7 mph N/A   Muy nublado
7:55 PM 75.2 ° F - 60.8 ° F 61% 29.82 pul 10.0 mi SSE 11.5 mph 18.4 mph N/A   Nubes dispersas
8:15 PM 75.2 ° F - 59.0 ° F 57% 29.82 pul 10.0 mi SSE 13.8 mph - N/A   Despejado
8:35 PM 73.4 ° F - 57.2 ° F 57% 29.82 pul 10.0 mi SSE 10.4 mph 19.6 mph N/A   Despejado
8:55 PM 73.4 ° F - 57.2 ° F 57% 29.83 pul 10.0 mi SSE 12.7 mph 18.4 mph N/A   Despejado
9:15 PM 73.4 ° F - 59.0 ° F 61% 29.83 pul 10.0 mi SSE 12.7 mph 17.3 mph N/A   Despejado
9:35 PM 71.6 ° F - 59.0 ° F 64% 29.84 pul 10.0 mi SSE 9.2 mph - N/A   Despejado
9:55 PM 71.6 ° F - 60.8 ° F 69% 29.84 pul 10.0 mi SSE 9.2 mph - N/A   Despejado
10:15 PM 69.8 ° F - 60.8 ° F 73% 29.85 pul 10.0 mi SSE 9.2 mph - N/A   Despejado
10:35 PM 69.8 ° F - 60.8 ° F 73% 29.86 pul 10.0 mi Sur 9.2 mph - N/A   Despejado
10:55 PM 68.0 ° F - 59.0 ° F 73% 29.86 pul 10.0 mi SSE 6.9 mph - N/A   Despejado
11:15 PM 66.2 ° F - 59.0 ° F 78% 29.86 pul 10.0 mi SSE 5.8 mph - N/A   Despejado
11:35 PM 66.2 ° F - 59.0 ° F 78% 29.86 pul 10.0 mi SSE 6.9 mph - N/A   Despejado
11:55 PM 66.2 ° F - 59.0 ° F 78% 29.86 pul 10.0 mi SSE 5.8 mph - N/A   Despejado